EXS51A EGHH-LEMH

Flight info

Callsign EXS51A
Flight time 1h 48m
Altitude 37000
Route SAM Y8 GWC UN859 SOPIL BALAN EVPOK NARAK GAI LOMRA ROCAN GEANT GIR SALON SULID N727 SARGO SARG6F
Aircraft B738/M-V/N

Departure

Time 2026-05-04 18:27
Airport Bournemouth Airport (EGHH)

Arrival

Time 2026-05-04 20:16
Airport Menorca Airport (LEMH)
Time Latitude Longitude Altitude Speed Heading
2026-05-04 18:25 50.78247 -1.82715 46 ft 11 kts 337°
2026-05-04 18:25 50.78245 -1.82792 46 ft 0 kts 250°
2026-05-04 18:26 50.78230 -1.82865 46 ft 20 kts 255°
2026-05-04 18:26 50.78138 -1.83423 46 ft 85 kts 255°
2026-05-04 18:26 50.77937 -1.84632 46 ft 142 kts 256°
2026-05-04 18:27 50.77672 -1.86249 548 ft 150 kts 256°
2026-05-04 18:27 50.77421 -1.87796 1372 ft 146 kts 261°
2026-05-04 18:27 50.77598 -1.89448 1793 ft 164 kts 299°
2026-05-04 18:27 50.78385 -1.90868 2177 ft 184 kts 319°
2026-05-04 18:28 50.79464 -1.92176 2506 ft 207 kts 321°
2026-05-04 18:28 50.80670 -1.93628 2892 ft 227 kts 322°
2026-05-04 18:28 50.81956 -1.95174 3532 ft 238 kts 323°
2026-05-04 18:28 50.83457 -1.96394 4187 ft 248 kts 345°
2026-05-04 18:29 50.85195 -1.96416 4966 ft 255 kts 11°
2026-05-04 18:29 50.86795 -1.95180 5777 ft 262 kts 36°
2026-05-04 18:29 50.87935 -1.92900 6558 ft 271 kts 61°
2026-05-04 18:29 50.88388 -1.89967 7299 ft 281 kts 85°
2026-05-04 18:30 50.88264 -1.83691 8813 ft 288 kts 88°
2026-05-04 18:30 50.88268 -1.80548 9543 ft 291 kts 84°
2026-05-04 18:30 50.88469 -1.77364 10278 ft 292 kts 78°
2026-05-04 18:31 50.88846 -1.74180 10910 ft 299 kts 74°
2026-05-04 18:31 50.89360 -1.70898 11263 ft 315 kts 72°
2026-05-04 18:31 50.89913 -1.67443 11594 ft 334 kts 77°
2026-05-04 18:31 50.89942 -1.63680 12003 ft 351 kts 97°
2026-05-04 18:32 50.89156 -1.59972 12673 ft 359 kts 114°
2026-05-04 18:32 50.87827 -1.56617 13427 ft 362 kts 126°
2026-05-04 18:32 50.86288 -1.53434 14151 ft 365 kts 126°
2026-05-04 18:32 50.84732 -1.50227 14875 ft 368 kts 127°
2026-05-04 18:33 50.83165 -1.47002 15582 ft 372 kts 127°
2026-05-04 18:33 50.81577 -1.43747 16308 ft 374 kts 127°
2026-05-04 18:33 50.79978 -1.40474 16986 ft 378 kts 127°
2026-05-04 18:33 50.78362 -1.37170 17668 ft 380 kts 127°
2026-05-04 18:34 50.76739 -1.33856 18330 ft 383 kts 127°
2026-05-04 18:34 50.75103 -1.30519 19024 ft 384 kts 127°
2026-05-04 18:34 50.73464 -1.27181 19718 ft 385 kts 127°
2026-05-04 18:34 50.71820 -1.23835 20379 ft 387 kts 127°
2026-05-04 18:35 50.70165 -1.20472 21010 ft 389 kts 127°
2026-05-04 18:35 50.68521 -1.17135 21628 ft 390 kts 127°
2026-05-04 18:35 50.66867 -1.13735 22230 ft 391 kts 126°
2026-05-04 18:35 50.65219 -1.10309 22795 ft 393 kts 126°
2026-05-04 18:36 50.63557 -1.06878 23341 ft 395 kts 127°
2026-05-04 18:36 50.61879 -1.03438 23892 ft 397 kts 127°
2026-05-04 18:36 50.60186 -0.99983 24409 ft 399 kts 127°
2026-05-04 18:36 50.58483 -0.96518 24830 ft 403 kts 127°
2026-05-04 18:37 50.56759 -0.93022 25273 ft 406 kts 127°
2026-05-04 18:37 50.54924 -0.89642 25709 ft 409 kts 133°
2026-05-04 18:37 50.52817 -0.86602 26101 ft 413 kts 140°
2026-05-04 18:37 50.50465 -0.83974 26521 ft 416 kts 146°
2026-05-04 18:38 50.48030 -0.81512 26920 ft 419 kts 147°
2026-05-04 18:38 50.45548 -0.79058 27290 ft 422 kts 147°
2026-05-04 18:38 50.43052 -0.76598 27670 ft 424 kts 147°
2026-05-04 18:38 50.40544 -0.74133 28041 ft 427 kts 147°
2026-05-04 18:39 50.38872 -0.72488 28280 ft 428 kts 147°
2026-05-04 18:39 50.35479 -0.69154 28726 ft 432 kts 147°
2026-05-04 18:39 50.32920 -0.66644 29046 ft 435 kts 147°
2026-05-04 18:39 50.30383 -0.64157 29373 ft 437 kts 147°
2026-05-04 18:40 50.27807 -0.61636 29689 ft 439 kts 148°
2026-05-04 18:40 50.25205 -0.59093 29990 ft 441 kts 148°
2026-05-04 18:40 50.22593 -0.56543 30275 ft 443 kts 148°
2026-05-04 18:40 50.19969 -0.53961 30476 ft 448 kts 147°
2026-05-04 18:41 50.17329 -0.51342 30776 ft 449 kts 147°
2026-05-04 18:41 50.14686 -0.48738 31164 ft 448 kts 147°
2026-05-04 18:41 50.12051 -0.46153 31479 ft 449 kts 147°
2026-05-04 18:41 50.09392 -0.43553 31772 ft 450 kts 147°
2026-05-04 18:42 50.06758 -0.40985 32115 ft 450 kts 147°
2026-05-04 18:42 50.04116 -0.38414 32426 ft 451 kts 147°
2026-05-04 18:42 50.01455 -0.35829 32747 ft 451 kts 147°
2026-05-04 18:42 49.98794 -0.33250 33045 ft 452 kts 147°
2026-05-04 18:43 49.96107 -0.30654 33120 ft 458 kts 146°
2026-05-04 18:43 49.90613 -0.25335 33299 ft 469 kts 147°
2026-05-04 18:43 49.87842 -0.22660 33617 ft 469 kts 147°
2026-05-04 18:44 49.85077 -0.20000 33946 ft 469 kts 148°
2026-05-04 18:44 49.84141 -0.19099 34048 ft 469 kts 148°
2026-05-04 18:44 49.79536 -0.14676 34573 ft 468 kts 148°
2026-05-04 18:44 49.76767 -0.12020 34848 ft 468 kts 148°
2026-05-04 18:45 49.73992 -0.09362 35119 ft 469 kts 148°
2026-05-04 18:45 49.71227 -0.06718 35451 ft 467 kts 148°
2026-05-04 18:45 49.68490 -0.04102 35720 ft 467 kts 148°
2026-05-04 18:45 49.65717 -0.01457 36026 ft 467 kts 148°
2026-05-04 18:46 49.62968 0.01163 36321 ft 465 kts 148°
2026-05-04 18:46 49.60239 0.03761 36829 ft 459 kts 148°
2026-05-04 18:46 49.57529 0.06355 36938 ft 459 kts 147°
2026-05-04 18:47 49.52117 0.11523 37016 ft 456 kts 148°
2026-05-04 18:47 49.47643 0.15750 37022 ft 452 kts 148°
2026-05-04 18:48 49.42270 0.20808 37238 ft 454 kts 148°
2026-05-04 18:48 49.39581 0.23334 37480 ft 453 kts 148°
2026-05-04 18:48 49.36898 0.25855 37747 ft 452 kts 148°
2026-05-04 18:48 49.34193 0.28342 37946 ft 453 kts 151°
2026-05-04 18:49 49.31375 0.30507 38149 ft 453 kts 156°
2026-05-04 18:49 49.28434 0.32268 38352 ft 453 kts 161°
2026-05-04 18:49 49.25415 0.33709 38546 ft 454 kts 164°
2026-05-04 18:49 49.22375 0.34990 38744 ft 454 kts 165°
2026-05-04 18:50 49.19324 0.36256 38939 ft 454 kts 165°
2026-05-04 18:50 49.13205 0.38804 39022 ft 456 kts 165°
2026-05-04 18:51 49.07082 0.41385 39031 ft 455 kts 165°
2026-05-04 18:51 49.01020 0.43926 39035 ft 455 kts 165°
2026-05-04 18:52 48.94867 0.46482 39043 ft 456 kts 165°
2026-05-04 18:52 48.88790 0.48997 39047 ft 456 kts 165°
2026-05-04 18:53 48.82666 0.51527 39050 ft 456 kts 165°
2026-05-04 18:53 48.76525 0.54035 39052 ft 456 kts 166°
2026-05-04 18:54 48.70366 0.56437 39055 ft 456 kts 166°
2026-05-04 18:54 48.64211 0.58833 39058 ft 457 kts 166°
2026-05-04 18:55 48.58048 0.61228 39061 ft 457 kts 166°
2026-05-04 18:55 48.48821 0.64872 39065 ft 457 kts 165°
2026-05-04 18:56 48.42712 0.67368 39068 ft 458 kts 165°
2026-05-04 18:56 48.36217 0.69996 39072 ft 458 kts 165°
2026-05-04 18:57 48.30060 0.72480 39071 ft 458 kts 165°
2026-05-04 18:57 48.23897 0.74961 39065 ft 458 kts 166°
2026-05-04 18:58 48.17737 0.77378 39066 ft 458 kts 166°
2026-05-04 18:58 48.11577 0.79817 39067 ft 458 kts 166°
2026-05-04 18:59 48.05418 0.82239 39068 ft 458 kts 166°
2026-05-04 18:59 47.99250 0.84649 39075 ft 458 kts 166°
2026-05-04 19:00 47.93055 0.87063 39081 ft 461 kts 166°
2026-05-04 19:00 47.86845 0.89477 39086 ft 461 kts 166°
2026-05-04 19:01 47.80638 0.91884 39088 ft 460 kts 166°
2026-05-04 19:01 47.74438 0.94278 39091 ft 461 kts 166°
2026-05-04 19:02 47.68268 0.96683 39092 ft 461 kts 166°
2026-05-04 19:02 47.62059 0.99073 39097 ft 460 kts 167°
2026-05-04 19:03 47.55849 1.01452 39100 ft 460 kts 167°
2026-05-04 19:03 47.49642 1.03825 39103 ft 461 kts 167°
2026-05-04 19:04 47.43386 1.05841 39103 ft 459 kts 174°
2026-05-04 19:04 47.37021 1.06326 39103 ft 457 kts 182°
2026-05-04 19:05 47.30661 1.06142 39104 ft 457 kts 182°
2026-05-04 19:05 47.24292 1.05986 39106 ft 458 kts 182°
2026-05-04 19:06 47.17954 1.06045 39106 ft 459 kts 176°
2026-05-04 19:06 47.11622 1.07421 39106 ft 461 kts 172°
2026-05-04 19:07 47.05308 1.09089 39107 ft 461 kts 172°
2026-05-04 19:07 46.98993 1.10753 39108 ft 461 kts 172°
2026-05-04 19:08 46.92671 1.12411 39109 ft 461 kts 172°
2026-05-04 19:08 46.86362 1.14062 39110 ft 461 kts 172°
2026-05-04 19:09 46.80070 1.15707 39118 ft 461 kts 172°
2026-05-04 19:09 46.73751 1.17374 39120 ft 461 kts 172°
2026-05-04 19:10 46.67423 1.19031 39119 ft 461 kts 172°
2026-05-04 19:10 46.61102 1.20679 39119 ft 462 kts 172°
2026-05-04 19:11 46.54777 1.22323 39122 ft 461 kts 172°
2026-05-04 19:11 46.48446 1.23963 39128 ft 462 kts 172°
2026-05-04 19:12 46.38960 1.26413 39131 ft 461 kts 172°
2026-05-04 19:13 46.32646 1.28038 39133 ft 462 kts 172°
2026-05-04 19:13 46.26304 1.29667 39135 ft 462 kts 172°
2026-05-04 19:14 46.19984 1.31287 39137 ft 462 kts 172°
2026-05-04 19:14 46.13663 1.32903 39138 ft 461 kts 172°
2026-05-04 19:15 46.07373 1.34507 39139 ft 462 kts 173°
2026-05-04 19:15 46.01023 1.36123 39140 ft 462 kts 173°
2026-05-04 19:16 45.94690 1.37731 39139 ft 462 kts 173°
2026-05-04 19:16 45.88368 1.39332 39141 ft 462 kts 173°
2026-05-04 19:17 45.82018 1.40937 39144 ft 462 kts 173°
2026-05-04 19:17 45.75693 1.42531 39147 ft 462 kts 173°
2026-05-04 19:18 45.69403 1.44114 39151 ft 462 kts 173°
2026-05-04 19:18 45.63064 1.45705 39156 ft 462 kts 173°
2026-05-04 19:19 45.56733 1.47290 39163 ft 462 kts 173°
2026-05-04 19:19 45.50407 1.48870 39170 ft 462 kts 173°
2026-05-04 19:20 45.45131 1.50186 39175 ft 462 kts 173°
2026-05-04 19:20 45.38795 1.51762 39182 ft 462 kts 173°
2026-05-04 19:21 45.32456 1.53335 39187 ft 462 kts 173°
2026-05-04 19:21 45.26123 1.54904 39191 ft 462 kts 173°
2026-05-04 19:22 45.19784 1.56470 39194 ft 462 kts 173°
2026-05-04 19:22 45.13441 1.58035 39207 ft 462 kts 174°
2026-05-04 19:23 45.07112 1.59591 39211 ft 462 kts 174°
2026-05-04 19:23 45.00773 1.61147 39208 ft 462 kts 174°
2026-05-04 19:24 44.94482 1.62687 39208 ft 461 kts 174°
2026-05-04 19:24 44.88151 1.64234 39206 ft 462 kts 174°
2026-05-04 19:25 44.81822 1.65777 39206 ft 461 kts 174°
2026-05-04 19:25 44.75500 1.67315 39213 ft 461 kts 174°
2026-05-04 19:26 44.69172 1.68851 39213 ft 461 kts 174°
2026-05-04 19:26 44.66018 1.69615 39213 ft 461 kts 174°
2026-05-04 19:27 44.55688 1.72112 39213 ft 460 kts 174°
2026-05-04 19:27 44.53554 1.72627 39213 ft 460 kts 174°
2026-05-04 19:28 44.43784 1.74978 39214 ft 460 kts 174°
2026-05-04 19:28 44.37484 1.76491 39215 ft 460 kts 174°
2026-05-04 19:29 44.31170 1.78003 39228 ft 459 kts 174°
2026-05-04 19:29 44.24887 1.79505 39233 ft 459 kts 175°
2026-05-04 19:30 44.18579 1.81009 39237 ft 459 kts 175°
2026-05-04 19:30 44.12314 1.82500 39240 ft 459 kts 175°
2026-05-04 19:31 44.06009 1.83997 39244 ft 459 kts 175°
2026-05-04 19:31 43.99719 1.85487 39248 ft 459 kts 175°
2026-05-04 19:32 43.93411 1.86979 39253 ft 459 kts 175°
2026-05-04 19:32 43.87101 1.88468 39258 ft 459 kts 175°
2026-05-04 19:33 43.80836 1.89942 39262 ft 459 kts 175°
2026-05-04 19:33 43.74543 1.91421 39266 ft 459 kts 175°
2026-05-04 19:34 43.68237 1.92900 39270 ft 459 kts 175°
2026-05-04 19:34 43.61947 1.94371 39273 ft 459 kts 175°
2026-05-04 19:35 43.55638 1.95844 39274 ft 459 kts 175°
2026-05-04 19:35 43.49332 1.97313 39280 ft 460 kts 175°
2026-05-04 19:36 43.43023 1.98779 39282 ft 459 kts 175°
2026-05-04 19:36 43.37072 2.00160 39279 ft 460 kts 175°
2026-05-04 19:37 43.30768 2.01619 39282 ft 459 kts 175°
2026-05-04 19:37 43.24475 2.03073 39283 ft 459 kts 175°
2026-05-04 19:38 43.18179 2.04524 39279 ft 459 kts 175°
2026-05-04 19:38 43.11885 2.05972 39274 ft 459 kts 175°
2026-05-04 19:39 43.05588 2.07419 39270 ft 459 kts 175°
2026-05-04 19:39 42.99283 2.08863 39264 ft 459 kts 175°
2026-05-04 19:40 42.92979 2.10304 39256 ft 459 kts 175°
2026-05-04 19:40 42.86717 2.11733 39248 ft 459 kts 176°
2026-05-04 19:41 42.80409 2.13170 39239 ft 460 kts 176°
2026-05-04 19:41 42.74099 2.14612 39230 ft 460 kts 175°
2026-05-04 19:42 42.67779 2.16063 39233 ft 459 kts 176°
2026-05-04 19:42 42.61475 2.17492 39231 ft 460 kts 176°
2026-05-04 19:43 42.55146 2.18923 39225 ft 460 kts 176°
2026-05-04 19:43 42.48866 2.20341 39208 ft 460 kts 176°
2026-05-04 19:44 42.42729 2.23139 39186 ft 475 kts 156°
2026-05-04 19:44 42.37237 2.28250 39186 ft 481 kts 146°
2026-05-04 19:45 42.32082 2.34037 39192 ft 482 kts 144°
2026-05-04 19:45 42.26909 2.39817 39197 ft 482 kts 144°
2026-05-04 19:46 42.21735 2.45559 39197 ft 482 kts 145°
2026-05-04 19:46 42.16571 2.51312 39196 ft 482 kts 144°
2026-05-04 19:47 42.11405 2.57091 39196 ft 482 kts 145°
2026-05-04 19:47 42.06223 2.62803 39186 ft 481 kts 145°
2026-05-04 19:47 42.03615 2.65668 38864 ft 483 kts 145°
2026-05-04 19:48 42.01066 2.68466 38474 ft 479 kts 145°
2026-05-04 19:48 41.98482 2.71301 37824 ft 480 kts 145°
2026-05-04 19:48 41.95893 2.74138 37190 ft 480 kts 146°
2026-05-04 19:48 41.93303 2.76975 36550 ft 481 kts 146°
2026-05-04 19:49 41.90655 2.79727 35985 ft 477 kts 149°
2026-05-04 19:49 41.87965 2.82291 35471 ft 473 kts 151°
2026-05-04 19:49 41.85252 2.84799 34989 ft 470 kts 151°
2026-05-04 19:49 41.82585 2.87295 34535 ft 467 kts 151°
2026-05-04 19:50 41.79934 2.89797 34070 ft 464 kts 151°
2026-05-04 19:50 41.77303 2.92291 33621 ft 460 kts 151°
2026-05-04 19:50 41.74711 2.94772 33185 ft 457 kts 150°
2026-05-04 19:50 41.72135 2.97259 32729 ft 454 kts 150°
2026-05-04 19:51 41.69571 2.99710 32279 ft 451 kts 151°
2026-05-04 19:51 41.67025 3.02131 31866 ft 448 kts 151°
2026-05-04 19:51 41.64523 3.04503 31466 ft 444 kts 151°
2026-05-04 19:51 41.62010 3.06882 31044 ft 441 kts 151°
2026-05-04 19:52 41.59507 3.09250 30620 ft 439 kts 151°
2026-05-04 19:52 41.57026 3.11594 30216 ft 436 kts 151°
2026-05-04 19:52 41.54566 3.13917 29820 ft 433 kts 151°
2026-05-04 19:52 41.52110 3.16234 29408 ft 431 kts 151°
2026-05-04 19:53 41.49665 3.18542 28971 ft 429 kts 151°
2026-05-04 19:53 41.47199 3.20736 28560 ft 423 kts 154°
2026-05-04 19:53 41.44686 3.22777 28160 ft 420 kts 156°
2026-05-04 19:53 41.42188 3.24778 27732 ft 418 kts 155°
2026-05-04 19:54 41.39709 3.26781 27329 ft 415 kts 155°
2026-05-04 19:54 41.37238 3.28787 26927 ft 413 kts 155°
2026-05-04 19:54 41.34823 3.30750 26521 ft 411 kts 155°
2026-05-04 19:54 41.32384 3.32734 26104 ft 409 kts 155°
2026-05-04 19:55 41.29972 3.34696 25719 ft 406 kts 155°
2026-05-04 19:55 41.27560 3.36657 25284 ft 405 kts 155°
2026-05-04 19:55 41.25170 3.38600 24898 ft 402 kts 154°
2026-05-04 19:55 41.22791 3.40533 24522 ft 399 kts 154°
2026-05-04 19:56 41.20427 3.42450 24090 ft 398 kts 154°
2026-05-04 19:56 41.18065 3.44372 23692 ft 396 kts 154°
2026-05-04 19:56 41.15723 3.46296 23309 ft 394 kts 154°
2026-05-04 19:56 41.13405 3.48195 22949 ft 390 kts 154°
2026-05-04 19:57 41.11097 3.50081 22536 ft 389 kts 154°
2026-05-04 19:57 41.08795 3.51960 22158 ft 387 kts 154°
2026-05-04 19:57 41.06519 3.53820 21777 ft 384 kts 154°
2026-05-04 19:57 41.04239 3.55671 21411 ft 382 kts 154°
2026-05-04 19:58 41.01985 3.57490 21052 ft 379 kts 154°
2026-05-04 19:58 40.99738 3.59303 20661 ft 377 kts 154°
2026-05-04 19:58 40.98256 3.60498 20397 ft 376 kts 154°
2026-05-04 19:59 40.93689 3.64177 19660 ft 371 kts 154°
2026-05-04 19:59 40.91467 3.65966 19294 ft 369 kts 154°
2026-05-04 19:59 40.89276 3.67728 18936 ft 367 kts 154°
2026-05-04 19:59 40.87126 3.69456 18564 ft 365 kts 154°
2026-05-04 20:00 40.84942 3.71210 18232 ft 362 kts 153°
2026-05-04 20:00 40.82798 3.72931 17868 ft 360 kts 153°
2026-05-04 20:00 40.80682 3.74629 17522 ft 358 kts 153°
2026-05-04 20:00 40.78564 3.76328 17177 ft 356 kts 153°
2026-05-04 20:01 40.77058 3.77547 16931 ft 354 kts 153°
2026-05-04 20:01 40.75456 3.78860 16668 ft 352 kts 153°
2026-05-04 20:01 40.73374 3.80551 16321 ft 350 kts 153°
2026-05-04 20:01 40.71305 3.82219 15977 ft 348 kts 153°
2026-05-04 20:02 40.69242 3.83874 15629 ft 346 kts 153°
2026-05-04 20:02 40.67189 3.85515 15301 ft 344 kts 153°
2026-05-04 20:02 40.65142 3.87150 14932 ft 343 kts 153°
2026-05-04 20:02 40.63109 3.88771 14596 ft 340 kts 152°
2026-05-04 20:03 40.61089 3.90379 14264 ft 338 kts 152°
2026-05-04 20:03 40.59078 3.91980 13914 ft 337 kts 152°
2026-05-04 20:03 40.57086 3.93565 13586 ft 335 kts 152°
2026-05-04 20:03 40.55088 3.95153 13219 ft 334 kts 152°
2026-05-04 20:04 40.53111 3.96725 12893 ft 332 kts 152°
2026-05-04 20:04 40.51133 3.98253 12554 ft 329 kts 155°
2026-05-04 20:04 40.49059 3.99500 12207 ft 325 kts 162°
2026-05-04 20:04 40.46921 4.00420 11868 ft 322 kts 168°
2026-05-04 20:05 40.44800 4.01165 11586 ft 317 kts 170°
2026-05-04 20:05 40.42692 4.01866 11502 ft 307 kts 170°
2026-05-04 20:05 40.40631 4.02573 11383 ft 299 kts 170°
2026-05-04 20:05 40.38664 4.03259 11151 ft 295 kts 170°
2026-05-04 20:06 40.36683 4.03954 10859 ft 293 kts 170°
2026-05-04 20:06 40.34721 4.04644 10568 ft 292 kts 170°
2026-05-04 20:06 40.32764 4.05332 10290 ft 290 kts 170°
2026-05-04 20:06 40.30827 4.06014 10011 ft 288 kts 170°
2026-05-04 20:07 40.28897 4.06694 9725 ft 286 kts 170°
2026-05-04 20:07 40.26979 4.07370 9445 ft 284 kts 171°
2026-05-04 20:07 40.25073 4.08041 9161 ft 282 kts 171°
2026-05-04 20:07 40.23190 4.08704 8872 ft 280 kts 171°
2026-05-04 20:08 40.21330 4.09359 8587 ft 278 kts 171°
2026-05-04 20:08 40.19449 4.10021 8288 ft 277 kts 171°
2026-05-04 20:08 40.17565 4.10683 7606 ft 282 kts 170°
2026-05-04 20:08 40.15665 4.11351 6856 ft 282 kts 169°
2026-05-04 20:09 40.13778 4.12013 6136 ft 281 kts 169°
2026-05-04 20:09 40.11958 4.12702 5683 ft 271 kts 162°
2026-05-04 20:09 40.10389 4.13987 5316 ft 263 kts 142°
2026-05-04 20:09 40.09170 4.15693 4998 ft 252 kts 132°
2026-05-04 20:10 40.08254 4.17569 4734 ft 240 kts 116°
2026-05-04 20:10 40.07823 4.19584 4574 ft 220 kts 103°
2026-05-04 20:10 40.07562 4.21457 4460 ft 198 kts 103°
2026-05-04 20:10 40.07096 4.23072 4401 ft 184 kts 126°
2026-05-04 20:11 40.06216 4.24212 4324 ft 176 kts 149°
2026-05-04 20:11 40.05108 4.24839 4152 ft 172 kts 168°
2026-05-04 20:11 40.03941 4.25055 3937 ft 168 kts 181°
2026-05-04 20:11 40.02782 4.25016 3718 ft 165 kts 185°
2026-05-04 20:12 40.01639 4.24942 3496 ft 164 kts 187°
2026-05-04 20:12 40.00513 4.24780 3275 ft 163 kts 191°
2026-05-04 20:12 39.99393 4.24561 3051 ft 162 kts 192°
2026-05-04 20:12 39.98276 4.24335 2833 ft 162 kts 192°
2026-05-04 20:13 39.97182 4.24112 2615 ft 161 kts 191°
2026-05-04 20:13 39.96072 4.23884 2398 ft 161 kts 191°
2026-05-04 20:13 39.94975 4.23659 2174 ft 159 kts 191°
2026-05-04 20:13 39.93877 4.23435 1957 ft 158 kts 191°
2026-05-04 20:14 39.92820 4.23218 1737 ft 150 kts 191°
2026-05-04 20:14 39.91824 4.23013 1573 ft 140 kts 190°
2026-05-04 20:14 39.90886 4.22821 1380 ft 134 kts 189°
2026-05-04 20:14 39.89976 4.22635 1180 ft 132 kts 189°
2026-05-04 20:15 39.89067 4.22448 992 ft 133 kts 189°
2026-05-04 20:15 39.88142 4.22250 678 ft 137 kts 189°
2026-05-04 20:15 39.87209 4.22057 321 ft 133 kts 189°
2026-05-04 20:15 39.86387 4.21885 307 ft 99 kts 188°
2026-05-04 20:16 39.85911 4.21790 306 ft 28 kts 189°
2026-05-04 20:16 39.85749 4.21756 306 ft 23 kts 189°
2026-05-04 20:16 39.85592 4.21766 306 ft 22 kts 170°
2026-05-04 20:16 39.85516 4.21793 306 ft 9 kts 163°
2026-05-04 20:17 39.85458 4.21817 306 ft 8 kts 163°
2026-05-04 20:17 39.85412 4.21855 306 ft 8 kts 111°
2026-05-04 20:17 39.85418 4.21917 306 ft 8 kts 33°
2026-05-04 20:17 39.85469 4.21935 306 ft 7 kts
2026-05-04 20:18 39.85519 4.21945 306 ft 7 kts
2026-05-04 20:18 39.85566 4.21955 306 ft 7 kts
2026-05-04 20:18 39.85613 4.21965 306 ft 7 kts
2026-05-04 20:18 39.85661 4.21975 306 ft 9 kts
2026-05-04 20:19 39.85737 4.21991 306 ft 13 kts
2026-05-04 20:19 39.85843 4.22013 306 ft 18 kts
2026-05-04 20:19 39.85968 4.22038 306 ft 18 kts
2026-05-04 20:19 39.86087 4.22063 306 ft 17 kts
2026-05-04 20:20 39.86187 4.22088 306 ft 10 kts 43°
2026-05-04 20:20 39.86191 4.22177 306 ft 10 kts 100°
2026-05-04 20:20 39.86206 4.22256 306 ft 10 kts 28°
2026-05-04 20:20 39.86271 4.22270 306 ft 9 kts 11°
2026-05-04 20:21 39.86333 4.22284 306 ft 9 kts
2026-05-04 20:21 39.86338 4.22302 306 ft 2 kts 112°
2026-05-04 20:21 39.86324 4.22367 306 ft 4 kts 98°
2026-05-04 20:22 39.86321 4.22391 306 ft 0 kts 99°